Flag Weather past 2 weeks in Tampa, Florida, U.S.A.

Now
46 °F

Clear.


Feels Like: 41 °F
Forecast: 41 / 60 °F
Wind: 10 mph from Northeast

Location: Tampa International Airport

Current Time: Nov 28, 2014 at 6:11:59 AM

Latest Report: Nov 28, 2014 at 4:53 AM


Visibility: 10 mi

Pressure: 30.30 "Hg

Humidity: 61%

Dew point: 33 °F

Location of TampaLocation

Historic Weather in Tampa — Graph

°F

Tampa temperature yesterday

Maximum temperature yesterday: 70 °F (at 12:53 PM)
Minimum temperature yesterday: 49 °F (at 3:53 AM)
Average temperature yesterday: 57 °F

Past Weeks' High & Low Weather Summary

 TemperatureHumidityPressure
High82 °F (Nov 23, 11:53 AM)97% (Nov 25, 11:53 AM)30.40 "Hg (Nov 25, 11:53 AM)
Low41 °F (Nov 19, 4:53 AM)25% (Nov 20, 1:53 PM)29.85 "Hg (Nov 26, 12:53 AM)
Average63 °F72%30.12 "Hg
* Reported Nov 13 4:53 AM — Nov 28 4:53 AM, Tampa, Weather by CustomWeather, © 2014

Note: Actual official high and low records may vary slightly from our data, if they occured in-between our weather recording intervals... More about our weather records

Advertising

Tampa weather history for previous 24 hours

 ConditionsComfort  
Time TempWeatherWind HumidityBarometerVisibility
4:53 AM
Nov 28
46 °FClear.10 mph61%30.30 "Hg10 mi
3:53 AM47 °FClear.9 mph59%30.30 "Hg10 mi
2:53 AM49 °FClear.8 mph55%30.31 "Hg10 mi
1:53 AM50 °FClear.8 mph54%30.30 "Hg10 mi
12:53 AM50 °FClear.10 mph57%30.30 "Hg10 mi
11:53 PM
Nov 27
52 °FClear.9 mph55%30.30 "Hg10 mi
10:53 PM54 °FClear.13 mph55%30.31 "Hg10 mi
9:53 PM53 °FClear.6 mph69%30.30 "Hg10 mi
8:53 PM53 °FPassing clouds.7 mph69%30.28 "Hg10 mi
7:53 PM54 °FClear.8 mph62%30.27 "Hg10 mi
6:53 PM55 °FClear.7 mph57%30.26 "Hg10 mi
5:53 PM57 °FClear.10 mph51%30.23 "Hg10 mi
4:53 PM60 °FSunny.9 mph35%30.22 "Hg10 mi
3:53 PM63 °FSunny.18 mph35%30.22 "Hg10 mi
2:53 PM65 °FSunny.17 mph40%30.22 "Hg10 mi
1:53 PM68 °FSunny.16 mph40%30.21 "Hg10 mi
12:53 PM70 °FPassing clouds.17 mph42%30.22 "Hg10 mi
11:53 AM68 °FPassing clouds.7 mph57%30.26 "Hg10 mi
10:53 AM66 °FPassing clouds.6 mph54%30.29 "Hg10 mi
9:53 AM65 °FSunny.6 mph59%30.30 "Hg10 mi
8:53 AM61 °FSunny.5 mph56%30.29 "Hg10 mi
7:53 AM55 °FSunny.3 mph72%30.29 "Hg10 mi
6:53 AM51 °FClear.3 mph74%30.29 "Hg10 mi
Weather by CustomWeather, © 2014

See weather overviewHow to use our weather pages